COSMOS 2251 DEB, 38055

Orbit data source: Space-Track

COSMOS 2251 DEB, 38055 is space debris in LEO originally from a launch on Wed, 16 Jun 1993 UTC launched from the Plesetsk Missile And Space Complex (PKMTR). The debris from Iridium 33, an American commercial communications satellite, has been tracked extensively since its accidental collision with the defunct Russian satellite Cosmos 2251 in 2009. This event, occurring at high speed in low Earth orbit (LEO), generated thousands of pieces of space debris, significantly increasing the risk of further collisions. The Iridium 33 debris cloud has impacted space traffic management and orbital debris mitigation strategies, making it a subject of ongoing study in space situational awareness.

Loading next visibility...
Identifier
38055, 1993-036BRM
Orbit
LEO
Country
Flag of CISCIS
Related business
Manufacturer
Unknown
Mission
Spacecraft
Bus & Motor
Unknown
Mass
Unknown
Launch date (UTC)
1993-06-16 (32 years ago)
Launch vehicle
Unknown
Launch site
Plesetsk Missile And Space Complex (PKMTR)
Object type
Payload
Rocket body
Debris
Shape & HBR
Unknown shape, 0.1 m
Radar Cross Section
Small (<0.1 m²)

Expand to show TLE details & history
Last TLE update: 2 days ago

TLE from 2 days ago
0 COSMOS 2251 DEB
1 38055U 93036BRM 25291.34649925  .00006912  00000-0  97548-3 0  9997
2 38055  74.0094 315.4392 0065063  97.0159 282.9605 14.75913267598655
Epoch: 2025-10-18T08:18Z
TLE epoch observation values (Epoch: 2025-10-18T08:18:57.535Z)
Latitude
18.47746°
Longitude
169.08575°
Altitude
634.412 km
Speed
7.548 km/s
True Right ascension
21h 23m 37s
True Declination
18° 22' 21"
Sunlit
Object was in full shadow at epoch
Visualization orbit readout
Latitude
Unknown
Longitude
Unknown
Altitude
Unknown
Speed
Unknown
Apparent Right ascension
Unknown
Apparent Declination
Unknown
Sunlit
N/A
Visualization observer readout
Local Sidereal Time
21:42:58
Azimuth
Unknown
Elevation
Unknown
Doppler factor
Unknown
Orbital elements
Apogee altitude
685.497 km
Perigee altitude
594.175 km
Semi-major axis
7,017.973 km
Eccentricity
0.00651
Inclination
74.0094°
RAAN
315.4392°
Arg. of periapsis
97.0159°
True anomaly
282.23262°
Mean anomaly
282.9605°
Eccentric anomaly
282.59669°
Mean motion
3.69169 °/min
Orbital period
97.52 mins
BSTAR
0.00097548
Loading maneuver chart data...
Computing Atmospheric mass density...

Documentation

Showing up to 5 results
|